Regional Weather Roundup
Issued by NWS Newport/Morehead, NC

Current Version | Previous Version | Graphics & Text | Print | Product List | Glossary Off
Versions: 1 2 3 4 5 6 7 8 9 10 11 12 13 14 15 16 17 18 19 20 21 22 23 24 25 26 27 28 29 30 31 32 33 34 35 36 37 38 39 40 41 42 43 44 45 46 47 48 49 50

000
ASUS42 KMHX 282310
RWRMHX
WEATHER ROUNDUP FOR EASTERN NORTH CAROLINA
NATIONAL WEATHER SERVICE NEWPORT/MOREHEAD CITY NC
700 PM EDT MON JUL 28 2014

NOTE: "FAIR" INDICATES FEW OR NO CLOUDS BELOW 12,000 FEET
WITH NO SIGNIFICANT WEATHER AND/OR OBSTRUCTIONS TO VISIBILITY

NCZ015>017-031-032-045>047-102-103-290000-
NORTH COAST

CITY           SKY/WX    TMP DP  RH WIND       PRES   REMARKS
EDENTON        SUNNY     85  62  46 NW6       29.77R
ELIZABETH CITY SUNNY     83  64  52 W9        29.76R
KITTY HAWK     CLEAR     85  67  56 W9        29.75R
MANTEO         NOT AVBL

$$

NCZ045>047-081-094-103-104-290000-
CENTRAL COAST

CITY           SKY/WX    TMP DP  RH WIND       PRES   REMARKS
FRISCO         PTSUNNY   82  80  94 SW7       29.78R FOG
SWANQUARTER      N/A     84 N/A N/A SW16      29.74S

$$

NCZ095-097-098-100-101-290000-
SOUTHERN COAST

CITY           SKY/WX    TMP DP  RH WIND       PRES   REMARKS
BEAUFORT       HVY RAIN  75  70  84 SE12      29.80F VSB 1/4
CEDAR ISLAND     N/A     75 N/A N/A SW6G15    29.82S
JACKSONVILLE   FOG       79  79 100 S6        29.78  THUNDER VSB 1/2
NEWPORT        NOT AVBL
PINEY ISLAND   CLOUDY    75  32  20 SW10      29.78F
WILMINGTON     CLOUDY    73  68  84 W5        29.76F


$$

NCZ011>013-027>030-043-044-078>080-089-090>093-098-290000-
COASTAL PLAIN

CITY           SKY/WX    TMP DP  RH WIND       PRES   REMARKS
AHOSKIE        SUNNY     82  62  51 CALM      29.78R
CLINTON        PTSUNNY   89  67  47 NW5       29.78R
ELIZABETHTOWN  MOSUNNY   80  71  72 S6        29.79R
GOLDSBORO      SUNNY     87  67  51 NW8       29.77R
GREENVILLE     SUNNY     84  66  54 N5        29.82R
HAVELOCK       CLOUDY    74  72  93 S3        29.80R THUNDER
KENANSVILLE    MOSUNNY   85  71  64 CALM      29.79R
KINSTON        SUNNY     86  66  51 N6        29.79R
NEW BERN       PTSUNNY   78  72  81 S6        29.80R
RICHLANDS      PTSUNNY   84  73  70 W3        29.77R
ROANOKE RAPIDS NOT AVBL
ROCKY MOUNT    MOSUNNY   85  62  46 NW6       29.78S
WASHINGTON     MOSUNNY   84  66  54 N7        29.78R
WHITEVILLE     PTSUNNY   76  71  82 S6        29.78F

$$

AMZ130-135-150-152-154-156-158-170-250-252-270-ANZ085-086-088-633-658-670-290000-
MARINE OBSERVATIONS

STATION/POSITION TIME  TEMP    WIND        PRES    WAVE   SWELL
                       AIR SEA DIR/SP/G            HT/PER HT/PER
                 (UTC) (F)     (DEG/KT/KT) (MB)    (FT/S) (FT/S)
CHESAPEAKE LIGHT NOT AVBL
BUOY 44014       2300   81 79  260/ 10/ 12 1006.5    4/ 7   3/ 7
DUCK             2300   85 59  270/ 13/ 17 1006.9
2E DUCK          2200                        N/A     1/ 9
OREGON INLET     2300   85 83  300/  8/ 11 1007.8
BUOY 44095       2300      79                N/A     4/ 7
20E OREGON INLET NOT AVBL
HATTERAS CG      2300   81 82  230/  6/ 12 1008.6
DIAMOND BUOY     2300          VRB 12/ 14  1008.3    4/ 7   3/ 7
CAPE LOOKOUT     2200   83     230/ 10/ 13 1008.6
BEAUFORT LAB     2300   74 83  340/  8/ 20 1009.2
30 SE NEW RIVER  2300   82 82  250/ 17/ 23 1008.7    5/ 7
5 SE WRIGHTSVILL 2200   76 82  180/  4/  6   N/A
BUOY 41002       2222   82 81  230/ 17/ 21 1013.2    6/ 8   3/ 8
BUOY 41004       2300   84 84  210/ 19/ 23 1008.1    5/ 6   2/ 9

$$


USA.gov is the U.S. government's official web portal to all federal, state and local government web resources and services.